CZ-3C DEB, 39348

Orbit data source: Space-Track

CZ-3C DEB, 39348 is space debris in HEO originally from a launch on Sun, 31 Oct 2010 UTC launched from the Xichang Space Center, China (XSC). Debris objects in space refer to the collection of defunct objects orbiting the Earth. Examples of debris include non-operational satellites, rocket bodies, and fragments generated from explosions, collisions, or faulty payload assembly.

Loading next visibility...
Identifier
39348, 2010-057N
Orbit
HEO
Country
Flag of CNCN / PRC
Related business
Manufacturer
CALT
Mission
Spacecraft
Bus & Motor
Unknown
Mass
Unknown
Launch date (UTC)
2010-10-31 (15 years ago)
Launch vehicle
Unknown
Launch site
Xichang Space Center, China (XSC)
Object type
Payload
Rocket body
Debris
Shape & HBR
Unknown shape, 2.1 m
Radar Cross Section
Large (>1 m²)

Expand to show TLE details & history
Last TLE update: 21 hours ago

TLE from 21 hours ago
0 CZ-3C DEB
1 39348U 10057N   25349.16843284  .00000070  00000-0  80983-3 0  9997
2 39348  20.6917  34.4716 7227124 273.3554  13.9003  2.26076683100235
Epoch: 2025-12-15T04:02Z
TLE epoch observation values (Epoch: 2025-12-15T04:02:32.597Z)
Latitude
-0.00002°
Longitude
-110.23699°
Altitude
4,883.545 km
Speed
7.384 km/s
True Right ascension
02h 17m 52s
True Declination
0° 00' 00"
Sunlit
Object was in daylight at epoch
Visualization orbit readout
Latitude
Unknown
Longitude
Unknown
Altitude
Unknown
Speed
Unknown
Apparent Right ascension
Unknown
Apparent Declination
Unknown
Sunlit
N/A
Visualization observer readout
Local Sidereal Time
23:41:18
Azimuth
Unknown
Elevation
Unknown
Doppler factor
Unknown
Orbital elements
Apogee altitude
35,874.713 km
Perigee altitude
422.877 km
Semi-major axis
24,526.932 km
Eccentricity
0.72271
Inclination
20.6917°
RAAN
34.4716°
Arg. of periapsis
273.3554°
True anomaly
86.18584°
Mean anomaly
13.9003°
Eccentric anomaly
41.1464°
Mean motion
0.56504 °/min
Orbital period
637.12 mins
BSTAR
0.00080983
Loading maneuver chart data...
Computing Atmospheric mass density...
Loading historical data...
Loading historical data...
Loading historical data...
Loading historical data...
Loading historical data...
Loading historical data...
Loading historical data...

Documentation

Showing up to 5 results
|